Regional Weather Roundup
Issued by NWS

Home | Current Version | Previous Version | Graphics & Text | Print | Product List | Glossary On
Versions: 1 2 3 4 5 6 7 8 9 10 11 12 13 14 15 16 17 18 19 20 21 22 23 24 25 26 27 28 29 30 31 32 33 34 35 36 37 38 39 40 41 42 43 44 45 46 47 48 49 50
786
ASUS43 KLMK 241602
RWRKY
KENTUCKY REGIONAL WEATHER ROUNDUP
NATIONAL WEATHER SERVICE LOUISVILLE KY
1200 PM EDT FRI MAR 24 2017

NOTE "FAIR" INDICATES FEW OR NO CLOUDS BELOW 12,000 FEET
WITH NO SIGNIFICANT WEATHER AND/OR OBSTRUCTIONS TO VISIBILITY.

KYZ001>023-026-027-061>063-070>075-241700-
WESTERN AND SOUTH CENTRAL KENTUCKY

CITY           SKY/WX    TMP DP  RH WIND       PRES   REMARKS
PADUCAH        CLOUDY    68  56  65 S12G20    30.17R
HENDERSON      SUNNY     72  57  60 S18       30.16S
OWENSBORO      SUNNY     71  56  58 S23       30.19F
HOPKINSVILLE   MOSUNNY   72  55  53 S21G29    30.21S
BOWLING GREEN  SUNNY     71  53  52 S22       30.27R
GLASGOW        NOT AVBL
$$

KYZ024-025-028>034-038-045-046-053-241700-
NORTH CENTRAL KENTUCKY

CITY           SKY/WX    TMP DP  RH WIND       PRES   REMARKS
LOUISVILLE/SDF MOSUNNY   72  50  45 SW20G25   30.23R
LOUISVILLE/LOU PTSUNNY   70  51  51 S14G24    30.24R
FORT KNOX      SUNNY     70  52  54 S15G30    30.22R
$$

KYZ035>037-039>044-047>052-055>060-089>105-241700-
NORTHEAST KENTUCKY

CITY           SKY/WX    TMP DP  RH WIND       PRES   REMARKS
LEXINGTON      PTSUNNY   67  49  52 SW18G26   30.27R
COVINGTON      PTSUNNY   66  50  56 SW15G24   30.23R
FRANKFORT      PTSUNNY   69  48  47 SW15G30   30.25R
$$

KYZ054-064>069-076>088-106>120-241700-
SOUTHEAST KENTUCKY

CITY           SKY/WX    TMP DP  RH WIND       PRES   REMARKS
JACKSON        MOSUNNY   69  47  45 VRB7      30.30S
LONDON         CLOUDY    66  44  45 S8        30.32R
SOMERSET       CLOUDY    64  46  52 S12       30.32R
MIDDLESBORO    MOSUNNY   66  45  47 S12       30.36F
MONTICELLO     CLOUDY    68  51  54 S9G21     30.32R
$$





USA.gov is the U.S. government's official web portal to all federal, state and local government web resources and services.